map of CRD home
CRD - Airport
Location
City:  Comodoro Rivadavia, Chubut, Argentina
Name:General Enrique Mosconi International Airport
ICAO:SAVC
IATA:CRD

Details
Type:Airport (Aerodrome, Airfield)
Use:Public/Civil, Military, International (customs port of entry)
Latitude:4547'07"S (-45.785346)
Longitude:6727'56"W (-67.465507)
Datum:WGS 1984
Elevation:190 ft (58 m)
Variation:6.16E (WMM2015v2 magnetic declination)
-0.11 annual change
Runways:1
Longest:9275 × 164 ft (2827 × 50 m), paved

Time
Time Zone:UTC-3
Local Time:

Weather
METAR:SAVC 041400Z 15003KT 090V241 4000 VCFG NSC 18/14 Q1017
TAF:SAVC 041100Z 0412/0512 VRB05KT CAVOK TX33/0419Z TN12/0510Z
BECMG 0414/0416 05015KT
BECMG 0418/0500 03020KT
BECMG 0500/0506 VRB10KT

Related Locations
Nearby:
Farthest:UUN: 12362 mi / 19894 km
Baruun-Urt [Baruun-Urt Airport], 051, MN

Find:

   beyond  
but within

Other Information
Maps:
NOTAMs:
Links:
Sources:

  
  • flag of Argentina
  • flag of Chubut
  

Sectional Chart

Flight Planning
at skyvector.com

Satellite Image

Google Maps Satellite view

 

Copyright © 2004-2019 Karl L. Swartz. All rights reserved.
The Great Circle Mapper name and logo are trademarks of the Great Circle Mapper.
All other trademarks mentioned herein belong to their respective owners.
Please see credits for attibutions and further copyright information.

  Follow gcmap on Facebook Follow gcmap on Twitter GCmap on LinkedIn

hCard Microformat

Geo Microformat